OpenBCM V1.07b12 (Linux)

Packet Radio Mailbox

DB0FHN

[JN59NK Nuernberg]

 Login: GUEST





  
I6KZR  > KEPLER   04.05.03 19:29l 350 Lines 16476 Bytes #999 (0) @ WW
BID : 632_I6KZR
Read: DB0FHN GUEST
Subj: 2L Keplerian Elements #116
Path: DB0FHN<DB0ZWI<DB0HDF<DB0HOT<DB0MRW<DB0RGB<OK0PPL<RZ6HXA<SP7MGD<IK6PYS<
      I6ZLO<IK6WID
Sent: 030426/1700Z @:IK6WID.#AP.IMAR.ITA.EU #:37386 [MONTE URANO]  FBB7.00i
From: I6KZR@IK6WID.#AP.IMAR.ITA.EU
To  : KEPLER@WW





We the willing,
Led by the unknowing have done so much
with so little for so long
we are now qualified to do anything
with nothing, In no time at all.

Inviato da: I6KZR@IK6WID.#AP.IMAR.ITA.EU        

OSCAR 7
1 07530U 74089B   03114.65421652 -.00000029  00000-0  10000-3 0  1654
2 07530 101.7499 161.7987 0012176 313.3465  46.6589 12.53565273301347
GOES 2
1 10061U 77048A   03110.05256413 -.00000334  00000-0  00000+0 0  1593
2 10061  14.1502  12.9744 0012144 201.8149 158.0678  0.99401519 39439
GOES 3
1 10953U 78062A   03114.75008790 -.00000121  00000-0  00000+0 0    03
2 10953  13.4396  16.7379 0006510 354.2734   5.6993  1.00280356 44150
GOES 6
1 14050U 83041A   03114.84060561 -.00000029  00000-0  10000-3 0  4435
2 14050  10.4810  35.1625 0005434 357.3181   2.5914  1.00319556131299
OSCAR 10
1 14129U 83058B   03114.49337037  .00000164  00000-0  10000-3 0  9306
2 14129  26.0941 153.6865 6001323 346.5671   2.8093  2.05866623121400
OSCAR 11 (UoSAT 2)
1 14781U 84021B   03116.56195845  .00001359  00000-0  19479-3 0  1319
2 14781  98.1277  91.0581 0009824   4.1907 355.9386 14.78194891 26138
NOAA 10
1 16969U 86073A   03116.50619252  .00000098  00000-0  58736-4 0  7499
2 16969  98.7360 110.5150 0011512 252.4412 107.5503 14.27091103863454
GOES 7
1 17561U 87022A   03115.42605284  .00000029  00000-0  10000-3 0  9399
2 17561   7.7265  55.1087 0004100 278.3673 212.3440  1.00275711 42406
COSMOS 1861
1 18129U 87054A   03114.96585006 +.00000051 +00000-0 +39135-4 0 02335
2 18129 082.9201 098.1841 0013295 049.3235 310.9070 13.72707679793482
EUTELSAT 1-F4 (ECS 4)
1 18351U 87078B   03114.80467919 -.00000051  00000-0  00000+0 0   572
2 18351   7.3292  58.2607 0005924 200.1584 159.7603  0.98687044 43320
NOAA 11
1 19531U 88089A   03116.49597837  .00000137  00000-0  94485-4 0  5851
2 19531  98.8913 197.6238 0011973  16.8295 343.3274 14.14569060752261
ASTRA 1A
1 19688U 88109B   03113.70278637  .00000020  00000-0  10000-3 0  5998
2 19688   1.5525  93.4012 0005020 292.2898  83.8066  1.00271097 32843
OSCAR 14 (UOSAT 3)
1 20437U 90005B   03115.77278914  .00000064  00000-0  39720-4 0  2173
2 20437  98.2617 156.1867 0011398   9.6679 350.4715 14.31259756691963
OSCAR 15 (UOSAT 4)
1 20438U 90005C   03116.54020664  .00000046  00000-0  33593-4 0  7972
2 20438  98.2398 145.7581 0010725  19.2164 340.9445 14.30215831691730
OSCAR 16 (PACSAT)
1 20439U 90005D   03115.14765991  .00000143  00000-0  69328-4 0  8836
2 20439  98.3039 167.6508 0011218  19.3533 340.8073 14.31498562691916
OSCAR 17 (DOVE)
1 20440U 90005E   03115.75272233  .00000095  00000-0  51093-4 0  7438
2 20440  98.3232 172.2763 0011909  14.2299 345.9215 14.31778531692077
OSCAR 18 (WEBERSAT)
1 20441U 90005F   03115.54407628  .00000114  00000-0  58248-4 0   663
2 20441  98.3206 171.2455 0012269  17.3764 342.7839 14.31579334692029
OSCAR 19 (LUSAT)
1 20442U 90005G   03114.67632816 +.00000124 +00000-0 +62161-4 0 00037
2 20442 098.3367 173.5564 0012621 018.3065 341.8563 14.31743335691950
JAS 1B (FUJI 2)
1 20480U 90013C   03114.95368909 -.00000040 +00000-0 -13640-4 0 04938
2 20480 099.0552 065.4445 0539409 215.7479 140.6354 12.83331366618902
HST
1 20580U 90037B   03115.98843194  .00002330  00000-0  17892-3 0  4050
2 20580  28.4682 326.4857 0003756 249.8563 226.4833 14.98098395512608
EUTELSAT 2-F1
1 20777U 90079B   03115.60951340 -.00000109  00000-0  10000-3 0   600
2 20777   3.6617  83.8841 0005744 340.6245  84.1014  1.00271720 26763
FENGYUN 1B
1 20788U 90081A   03115.89689012 -.00000179  00000-0 -87986-4 0  9368
2 20788  99.0354  97.4782 0017249  45.6467 314.6110 14.02150374646839
EUTELSAT 2-F2
1 21056U 91003B   03112.94275634 +.00000107 +00000-0 +10000-3 0 06386
2 21056 002.8865 087.2607 0005507 325.4954 185.6543 01.00270095032511
INFORMATOR 1
1 21087U 91006A   03114.90799753 +.00000047 +00000-0 +32997-4 0 06400
2 21087 082.9384 269.0020 0037002 068.3444 292.1645 13.74933200613869
COSMOS 2123
1 21089U 91007A   03114.55083539  .00000078  00000-0  66454-4 0  5073
2 21089  82.9212 133.1744 0030814 103.6662 256.7921 13.74411402612715
ASTRA 1B
1 21139U 91015A   03108.00000000  .00000114  00000-0  10000-3 0  1682
2 21139   0.0122 319.8851 0002995  65.1991 199.7843  1.00273184 32770
METEOSAT 5 (MOP 2)
1 21140U 91015B   03113.80447631  .00000008  00000-0  10000-3 0  8110
2 21140   5.7761  69.4802 0001224  27.0271 107.3185  1.00272709 46691
NOAA 12
1 21263U 91032A   03116.53426864  .00000219  00000-0  11163-3 0   569
2 21263  98.6343 105.0738 0012334 182.1799 177.9329 14.25127558620751
OSCAR 22 (UoSAT 5)
1 21575U 91050B   03116.52943549  .00000248  00000-0  93209-4 0  7839
2 21575  98.1484 105.3163 0006609 298.2253  61.8264 14.39202631617919
METEOR 3-5
1 21655U 91056A   03116.22505644  .00000051  00000-0  10000-3 0  5175
2 21655  82.5594 351.7849 0014437  34.9640 325.2427 13.16982664562257
UARS
1 21701U 91063B   03115.41224880  .00000546  00000-0  59100-4 0  8789
2 21701  56.9790 125.5181 0005105  85.7219 274.4407 15.02997382635610
EUTELSAT 2-F3
1 21803U 91083A   03115.92597395  .00000118  00000-0  10000-3 0  5444
2 21803   2.7633  88.3859 0004834 280.7587 199.3563  1.00272572 37668
INMARSAT 2-F3
1 21814U 91084B   03116.47466142  .00000101  00000-0  10000-3 0  6547
2 21814   1.8803  60.2733 0003253 350.6674 191.9727  1.00273770 41562
INMARSAT 2-F4
1 21940U 92021B   03113.66465124 -.00000368  00000-0  10000-3 0  5899
2 21940   2.4133  21.7241 0002038   3.1438 174.7041  1.00270002 40325
EUTELSAT 2-F4
1 22028U 92041B   03110.98288196 -.00000110  00000-0  10000-3 0  3414
2 22028   1.8699  91.6949 0006284 280.5512 177.8938  1.00271843 32396
OSCAR 23 (KITSAT 1)
1 22077U 92052B   03115.57190482 -.00000037  00000-0  10000-3 0  1719
2 22077  66.0838 347.5078 0015565 258.8853 101.0416 12.86410816502799
ASTRA 1C
1 22653U 93031A   03108.00000000  .00000114  00000-0  10000-3 0  7961
2 22653   0.0122 319.8851 0002995  65.1991 199.7728  1.00273184 31470
METEOR 2-21
1 22782U 93055A   03116.21309535 -.00000072  00000-0 -79151-4 0  5783
2 22782  82.5494 162.0561 0023247 155.9002 204.3234 13.83536794487305
KITSAT B
1 22825U 93061C   03116.55305570  .00000095  00000-0  53596-4 0  5418
2 22825  98.2664 142.8159 0009634  61.9546 298.2617 14.28966552499442
POSAT 1
1 22826U 93061D   03116.08276704  .00000088  00000-0  50679-4 0  3445
2 22826  98.2695 143.5146 0010085  62.1836 298.0339 14.29191481499427
ITAMSAT
1 22828U 93061F   03115.55732511  .00000087  00000-0  49799-4 0  4802
2 22828  98.2632 143.2792 0010946  44.8480 315.3586 14.29529952467556
EYESAT A
1 22829U 93061G   03116.11407058  .00000099  00000-0  54577-4 0  5074
2 22829  98.2657 144.4497 0010844  43.5664 316.6314 14.29801571499565
METEOSAT 6
1 22912U 93073B   03110.98704862  .00000059  00000-0  00000+0 0  7662
2 22912   2.8246  82.1213 0002856 322.3450 169.6545  1.00284576 32911
GOES 8
1 23051U 94022A   03116.41808125 -.00000255  00000-0  00000+0 0  7044
2 23051   0.4630  99.4374 0005369 340.5986 208.3411  1.00255441 40476
ASTRA 1D
1 23331U 94070A   03115.85328919  .00000126  00000-0  10000-3 0  8360
2 23331   0.0666 157.8785 0003229 236.6883 150.2238  1.00272993 31531
RADIO ROSTO
1 23439U 94085A   03114.92570544 -.00000039 +00000-0 +92679-4 0 06999
2 23439 064.8137 295.7974 0146445 102.4112 259.3243 11.27548666342968
NOAA 14
1 23455U 94089A   03116.51698993  .00000104  00000-0  80312-4 0  6068
2 23455  99.1825 136.8430 0009954  46.4583 313.7413 14.13322698428934
HIMAWARI 5 (GMS 5)
1 23522U 95011B   03114.23456721 -.00000294  00000-0  00000+0 0  2010
2 23522   1.9077  83.4695 0001164 298.8967  54.0686  1.00276553 29533
HOT BIRD 1
1 23537U 95016B   03099.84635997  .00000088  00000-0  10000-3 0  5405
2 23537   0.0227 231.2698 0003930 159.6337 124.4056  1.00270936 29475
GOES 9
1 23581U 95025A   03115.43531464 -.00000220  00000-0  00000+0 0  6362
2 23581   0.1093 276.8934 0013864 234.7711  12.3842  1.00056853 29021
INMARSAT 3-F1
1 23839U 96020A   03114.70941586  .00000001  00000-0  10000-3 0  9200
2 23839   0.0729  23.0211 0004619  14.2576 134.3074  1.00269959 25863
ASTRA 1F
1 23842U 96021A   03108.00000000  .00000114  00000-0  10000-3 0  5670
2 23842   0.0122 319.8851 0002995  65.1991 199.7635  1.00273184 25707
JAS 2
1 24278U 96046B   03114.91969687 -.00000023 +00000-0 +11082-4 0 05833
2 24278 098.5485 257.2965 0351445 047.1761 315.8349 13.52879027330146
UNAMSAT
1 24305U 96052B   03114.76188446 +.00000205 +00000-0 +20364-3 0 06845
2 24305 082.9328 214.5685 0032190 022.9169 337.3400 13.73460346332435
INMARSAT 3-F2
1 24307U 96053A   03114.94954284 -.00000138  00000-0  00000+0 0  1133
2 24307   0.0993  22.4006 0005494 346.1395 170.3944  1.00271717 24275
HOT BIRD 2
1 24665U 96067A   03104.95823611  .00000000  00000-0  10000-3 0  3497
2 24665   0.0337 189.6656 0009067 269.9979 100.9111  1.00271489 23811
INMARSAT 3-F3
1 24674U 96070A   03115.37796850  .00000025  00000-0  10000-3 0   341
2 24674   0.1031  60.3969 0003565 321.6133 145.1288  1.00273850 23247
GOES 10
1 24786U 97019A   03114.22426671  .00000071  00000-0  00000+0 0  6514
2 24786   0.3021 102.1533 0004316 318.6894  96.7676  1.00283652 21981
INMARSAT 3-F4
1 24819U 97027A   03116.34833506 -.00000298  00000-0  10000-3 0  9132
2 24819   0.0808  56.5610 0002630 325.6449 263.0473  1.00267161 21674
FENGYUN 2A
1 24834U 97029A   03113.75286428 -.00000211 +00000-0 +00000-0 0 00051
2 24834 002.7308 087.7206 0000322 297.2364 183.8620 01.00268081021482
HOT BIRD 3
1 24931U 97049A   03099.84635997  .00000088  00000-0  10000-3 0  4300
2 24931   0.0632  21.1145 0006301 353.2368 140.9901  1.00272510 20583
